• In Moldova, Republic
  • List of Countries
  • For 7 days
  • Water Temperature
  • Satellite Maps
  • Weather Map
  • Weather Widgets
  • user-avatar
    Login

    Hourly Weather Namibe

    Today, 31 March, Friday

    Time Temperature Precipitation Wind Pressure Humidity
    00:00 +31°C° 0.2 mm 3 mps 758 mmHg 69%
    01:00 +31°C° 0.2 mm 3 mps 758 mmHg 67%
    02:00 +31°C° 0 mm 3 mps 758 mmHg 67%
    03:00 +31°C° 0 mm 3 mps 758 mmHg 66%
    04:00 +31°C° 0 mm 3 mps 757 mmHg 66%
    05:00 +31°C° 0.1 mm 3 mps 757 mmHg 66%
    06:00 +31°C° 0.1 mm 3 mps 758 mmHg 66%
    07:00 +30°C° 0.1 mm 3 mps 758 mmHg 66%
    08:00 +33°C° 0 mm 3 mps 758 mmHg 60%
    09:00 +35°C° 0 mm 3 mps 758 mmHg 54%
    10:00 +36°C° 0 mm 4 mps 758 mmHg 47%
    11:00 +38°C° 0 mm 4 mps 758 mmHg 42%
    12:00 +40°C° 0 mm 5 mps 757 mmHg 38%
    13:00 +42°C° 0 mm 5 mps 756 mmHg 33%
    14:00 +40°C° 0.2 mm 6 mps 756 mmHg 37%
    15:00 +39°C° 0.2 mm 6 mps 756 mmHg 41%
    16:00 +38°C° 0.2 mm 6 mps 755 mmHg 44%
    17:00 +35°C° 1.4 mm 5 mps 756 mmHg 52%
    18:00 +33°C° 1.4 mm 3 mps 756 mmHg 59%
    19:00 +30°C° 1.4 mm 2 mps 757 mmHg 67%
    20:00 +30°C° 0.7 mm 1 mps 758 mmHg 67%
    21:00 +30°C° 0.7 mm 1 mps 758 mmHg 68%
    22:00 +30°C° 0.7 mm 1 mps 759 mmHg 68%
    23:00 +30°C° 0.3 mm 1 mps 759 mmHg 69%

    Tomorrow, 1 April, Saturday

    Time Temperature Precipitation Wind Pressure Humidity
    00:00 +30°C° 0.3 mm 2 mps 759 mmHg 69%
    01:00 +30°C° 0.3 mm 2 mps 758 mmHg 70%
    02:00 +30°C° 0.2 mm 2 mps 758 mmHg 71%
    03:00 +30°C° 0.2 mm 2 mps 758 mmHg 72%
    04:00 +30°C° 0.2 mm 2 mps 757 mmHg 74%
    05:00 +30°C° 0 mm 1 mps 758 mmHg 74%
    06:00 +29°C° 0 mm 1 mps 758 mmHg 75%
    07:00 +29°C° 0 mm 1 mps 758 mmHg 75%
    08:00 +31°C° 0 mm 1 mps 758 mmHg 68%
    09:00 +32°C° 0 mm 1 mps 759 mmHg 61%
    10:00 +34°C° 0 mm 1 mps 759 mmHg 54%
    11:00 +36°C° 0 mm 2 mps 758 mmHg 48%
    12:00 +38°C° 0 mm 3 mps 757 mmHg 43%
    13:00 +39°C° 0 mm 3 mps 757 mmHg 38%
    14:00 +40°C° 0 mm 4 mps 756 mmHg 42%
    15:00 +39°C° 0 mm 5 mps 756 mmHg 46%
    16:00 +38°C° 0 mm 6 mps 755 mmHg 50%
    17:00 +35°C° 0.1 mm 5 mps 755 mmHg 57%
    18:00 +34°C° 0.1 mm 4 mps 756 mmHg 63%
    19:00 +31°C° 0.1 mm 3 mps 756 mmHg 69%
    20:00 +31°C° 0 mm 3 mps 757 mmHg 67%
    21:00 +31°C° 0 mm 3 mps 757 mmHg 66%
    22:00 +31°C° 0 mm 3 mps 758 mmHg 65%
    23:00 +31°C° 0 mm 3 mps 758 mmHg 64%

    Day after tomorrow, 2 April, Sunday

    Time Temperature Precipitation Wind Pressure Humidity
    00:00 +31°C° 0 mm 3 mps 757 mmHg 63%
    01:00 +31°C° 0 mm 2 mps 757 mmHg 63%
    02:00 +31°C° 0 mm 2 mps 757 mmHg 65%
    03:00 +30°C° 0 mm 2 mps 756 mmHg 67%
    04:00 +30°C° 0 mm 2 mps 756 mmHg 68%
    05:00 +30°C° 0 mm 1 mps 756 mmHg 69%
    06:00 +30°C° 0 mm 1 mps 757 mmHg 69%
    07:00 +30°C° 0 mm 1 mps 757 mmHg 69%
    08:00 +32°C° 0 mm 1 mps 757 mmHg 61%
    09:00 +34°C° 0 mm 1 mps 758 mmHg 54%
    10:00 +35°C° 0 mm 1 mps 758 mmHg 46%
    11:00 +38°C° 0 mm 2 mps 757 mmHg 41%
    12:00 +39°C° 0 mm 3 mps 756 mmHg 35%
    13:00 +42°C° 0 mm 4 mps 756 mmHg 30%
    14:00 +41°C° 0 mm 5 mps 755 mmHg 34%
    15:00 +40°C° 0 mm 5 mps 755 mmHg 39%
    16:00 +39°C° 0 mm 6 mps 754 mmHg 44%
    17:00 +36°C° 0 mm 5 mps 755 mmHg 47%
    18:00 +35°C° 0 mm 4 mps 755 mmHg 50%
    19:00 +33°C° 0 mm 4 mps 756 mmHg 53%
    20:00 +33°C° 0 mm 3 mps 756 mmHg 53%
    21:00 +33°C° 0 mm 3 mps 757 mmHg 53%
    22:00 +32°C° 0 mm 2 mps 757 mmHg 52%
    23:00 +31°C° 0 mm 2 mps 757 mmHg 53%

    3 April, Monday

    Time Temperature Precipitation Wind Pressure Humidity
    00:00 +31°C° 0 mm 2 mps 757 mmHg 54%
    01:00 +31°C° 0 mm 2 mps 756 mmHg 55%
    02:00 +31°C° 0 mm 2 mps 756 mmHg 57%
    03:00 +30°C° 0 mm 2 mps 756 mmHg 59%
    04:00 +30°C° 0 mm 2 mps 755 mmHg 61%
    05:00 +30°C° 0 mm 2 mps 756 mmHg 61%
    06:00 +30°C° 0 mm 2 mps 756 mmHg 61%
    07:00 +31°C° 0 mm 2 mps 756 mmHg 60%
    08:00 +34°C° 0 mm 2 mps 757 mmHg 50%
    09:00 +36°C° 0 mm 2 mps 757 mmHg 39%
    10:00 +39°C° 0 mm 2 mps 757 mmHg 28%
    11:00 +40°C° 0 mm 3 mps 756 mmHg 24%
    12:00 +43°C° 0 mm 4 mps 755 mmHg 21%
    13:00 +45°C° 0 mm 5 mps 755 mmHg 17%
    14:00 +43°C° 0 mm 5 mps 754 mmHg 21%
    15:00 +42°C° 0 mm 5 mps 754 mmHg 25%
    16:00 +42°C° 0 mm 5 mps 753 mmHg 28%
    17:00 +39°C° 0 mm 5 mps 754 mmHg 38%
    18:00 +36°C° 0 mm 4 mps 754 mmHg 47%
    19:00 +33°C° 0 mm 4 mps 755 mmHg 56%
    20:00 +33°C° 0 mm 3 mps 755 mmHg 56%
    21:00 +33°C° 0 mm 3 mps 756 mmHg 56%
    22:00 +31°C° 0 mm 2 mps 756 mmHg 56%
    23:00 +31°C° 0 mm 2 mps 756 mmHg 56%

    4 April, Tuesday

    Time Temperature Precipitation Wind Pressure Humidity
    00:00 +31°C° 0 mm 2 mps 756 mmHg 56%
    01:00 +31°C° 0 mm 1 mps 756 mmHg 57%
    02:00 +31°C° 0 mm 1 mps 756 mmHg 55%
    03:00 +31°C° 0 mm 1 mps 755 mmHg 54%
    04:00 +31°C° 0 mm 1 mps 755 mmHg 53%
    05:00 +31°C° 0 mm 1 mps 756 mmHg 50%
    06:00 +31°C° 0 mm 1 mps 756 mmHg 47%
    07:00 +31°C° 0 mm 1 mps 757 mmHg 44%
    08:00 +35°C° 0 mm 2 mps 757 mmHg 38%
    09:00 +37°C° 0 mm 2 mps 757 mmHg 32%
    10:00 +39°C° 0 mm 2 mps 757 mmHg 26%
    11:00 +40°C° 0 mm 3 mps 756 mmHg 24%
    12:00 +42°C° 0 mm 3 mps 755 mmHg 22%
    13:00 +43°C° 0 mm 4 mps 754 mmHg 20%
    14:00 +43°C° 0 mm 5 mps 754 mmHg 23%
    15:00 +42°C° 0 mm 5 mps 754 mmHg 26%
    16:00 +41°C° 0 mm 6 mps 753 mmHg 29%
    17:00 +39°C° 0 mm 5 mps 754 mmHg 36%
    18:00 +36°C° 0 mm 4 mps 755 mmHg 43%
    19:00 +34°C° 0 mm 3 mps 755 mmHg 50%
    20:00 +32°C° 0 mm 2 mps 756 mmHg 52%
    21:00 +32°C° 0 mm 2 mps 757 mmHg 53%
    22:00 +31°C° 0 mm 1 mps 757 mmHg 55%
    23:00 +31°C° 0 mm 1 mps 757 mmHg 56%

    5 April, Wednesday

    Time Temperature Precipitation Wind Pressure Humidity
    00:00 +31°C° 0 mm 1 mps 757 mmHg 57%
    01:00 +31°C° 0 mm 1 mps 757 mmHg 58%
    02:00 +30°C° 0 mm 1 mps 757 mmHg 58%
    03:00 +28°C° 0 mm 0 mps 757 mmHg 58%
    04:00 +28°C° 0 mm 0 mps 757 mmHg 59%
    05:00 +28°C° 0 mm 0 mps 757 mmHg 58%
    06:00 +30°C° 0 mm 1 mps 757 mmHg 57%
    07:00 +31°C° 0 mm 1 mps 758 mmHg 56%
    08:00 +33°C° 0 mm 1 mps 758 mmHg 47%
    09:00 +35°C° 0 mm 1 mps 758 mmHg 39%
    10:00 +38°C° 0 mm 2 mps 758 mmHg 30%
    11:00 +39°C° 0 mm 3 mps 757 mmHg 26%
    12:00 +42°C° 0 mm 4 mps 756 mmHg 22%
    13:00 +43°C° 0 mm 5 mps 755 mmHg 18%
    14:00 +42°C° 0 mm 5 mps 755 mmHg 23%
    15:00 +41°C° 0 mm 6 mps 754 mmHg 27%
    16:00 +40°C° 0 mm 6 mps 754 mmHg 32%
    17:00 +37°C° 0 mm 5 mps 754 mmHg 38%
    18:00 +35°C° 0 mm 5 mps 755 mmHg 45%
    19:00 +33°C° 0 mm 4 mps 755 mmHg 52%
    20:00 +33°C° 0 mm 4 mps 755 mmHg 51%
    21:00 +33°C° 0 mm 4 mps 756 mmHg 50%
    22:00 +31°C° 0 mm 3 mps 756 mmHg 50%
    23:00 +31°C° 0 mm 3 mps 756 mmHg 50%
    Show more